Weather History for KHVN - April, 2013

Change the Weather History Date:

Sunday, April 28, 2013

  Actual Average Record
Temperature  
Mean Temperature 54 °F -  
Max Temperature 64 °F 60 °F 94 °F (1990)
Min Temperature 44 °F 43 °F 36 °F (1972)
Degree Days  
Heating Degree Days 11    
Growing Degree Days 4 (Base 50)    
Moisture  
Dew Point 41 °F    
Average Humidity 75    
Maximum Humidity 100    
Minimum Humidity 37    
Precipitation  
Precipitation 0.00 in - - ()
Sea Level Pressure  
Sea Level Pressure 30.30 in    
Wind  
Wind Speed 4 mph (ESE)    
Max Wind Speed 13 mph    
Max Gust Speed -    
Visibility 6 miles    
Events Fog    
Averages and records for this station are not official NWS values.
T = Trace of Precipitation, MM = Missing Value Source: NWS Daily Summary

Daily Weather History Graph

Daily Weather History Graph

Search for Another Location

Airport or City:

Trip Planner

Search our weather history database for the weather conditions in past years. The results will help you decide how hot, cold, wet, or windy it might be!

Date:

Astronomy

Apr. 28, 2013 Rise Set
Actual Time 5:52 AM EDT 7:45 PM EDT
Civil Twilight 5:23 AM EDT 8:15 PM EDT
Nautical Twilight 4:46 AM EDT 8:52 PM EDT
Astronomical Twilight 4:07 AM EDT 9:31 PM EDT
Moon 11:14 PM EDT (4/28) 8:05 AM EDT (4/28)
Length of Visible Light 14h 52m
Length of Day
13h 53m
Waning Gibbous, 89% of the Moon is Illuminated
Apr 28
Waning Gibbous
May 2
Last Quarter
May 9
New
May 18
First Quarter
May 25
Full

Hourly Weather History & Observations

Time (EDT) Temp. Windchill Dew Point Humidity Pressure Visibility Wind Dir Wind Speed Gust Speed Precip Events Conditions
12:53 AM 48.0 °F - 43.0 °F 83% 30.33 in 10.0 mi ESE 3.5 mph - N/A   Overcast
1:53 AM 46.9 °F - 42.1 °F 83% 30.32 in 10.0 mi Calm Calm - N/A   Clear
2:53 AM 45.0 °F 43.5 °F 42.1 °F 90% 30.31 in 9.0 mi East 3.5 mph - N/A   Clear
3:53 AM 44.1 °F 42.5 °F 41.0 °F 89% 30.30 in 8.0 mi ESE 3.5 mph - N/A   Partly Cloudy
3:58 AM 44.6 °F 43.1 °F 41.0 °F 87% 30.30 in 1.8 mi East 3.5 mph - N/A   Scattered Clouds
4:05 AM 44.6 °F - 42.8 °F 93% 30.30 in 0.2 mi Calm Calm - N/A Fog Fog
4:12 AM 44.6 °F 42.2 °F 42.8 °F 93% 30.30 in 0.2 mi East 4.6 mph - N/A Fog Fog
4:42 AM 44.6 °F 43.1 °F 42.8 °F 93% 30.30 in 0.2 mi East 3.5 mph - N/A Fog Fog
4:53 AM 45.0 °F - 43.0 °F 93% 30.30 in 0.2 mi Calm Calm - N/A Fog Fog
5:10 AM 44.6 °F - 42.8 °F 93% 30.30 in 0.2 mi Calm Calm - N/A Fog Fog
5:24 AM 44.6 °F - 42.8 °F 93% 30.30 in 0.5 mi Calm Calm - N/A Fog Fog
5:49 AM 44.6 °F 42.2 °F 42.8 °F 93% 30.30 in 0.2 mi East 4.6 mph - N/A Fog Fog
5:53 AM 44.1 °F 42.5 °F 42.1 °F 93% 30.30 in 0.2 mi East 3.5 mph - N/A Fog Fog
6:53 AM 44.1 °F - 42.1 °F 93% 30.32 in 0.2 mi Calm Calm - N/A Fog Fog
7:51 AM 44.6 °F - 42.8 °F 93% 30.33 in 0.5 mi Calm Calm - N/A Fog Fog
7:53 AM 44.1 °F 42.5 °F 43.0 °F 96% 30.33 in 0.5 mi ENE 3.5 mph - N/A Fog Fog
8:14 AM 44.6 °F - 42.8 °F 93% 30.33 in 1.0 mi Calm Calm - N/A   Mist
8:53 AM 44.6 °F - 44.6 °F 100% 30.34 in 3.0 mi Calm Calm - N/A   Mostly Cloudy
9:05 AM 46.4 °F - 46.4 °F 100% 30.34 in 5.0 mi Calm Calm - N/A   Scattered Clouds
9:39 AM 50.0 °F - 42.8 °F 76% 30.33 in 10.0 mi East 5.8 mph - N/A   Scattered Clouds
9:53 AM 51.1 °F - 44.1 °F 77% 30.33 in 10.0 mi SE 6.9 mph - N/A   Scattered Clouds
10:53 AM 55.9 °F - 43.0 °F 62% 30.33 in 10.0 mi SE 5.8 mph - N/A   Clear
11:53 AM 60.1 °F - 43.0 °F 53% 30.32 in 10.0 mi ESE 8.1 mph - N/A   Partly Cloudy
12:53 PM 61.0 °F - 37.0 °F 41% 30.31 in 10.0 mi ESE 12.7 mph - N/A   Partly Cloudy
1:53 PM 63.0 °F - 37.9 °F 40% 30.30 in 10.0 mi SE 10.4 mph - N/A   Scattered Clouds
2:53 PM 64.0 °F - 37.0 °F 37% 30.28 in 10.0 mi SSE 10.4 mph - N/A   Scattered Clouds
3:53 PM 62.1 °F - 36.0 °F 38% 30.26 in 10.0 mi SSE 11.5 mph - N/A   Scattered Clouds
4:53 PM 61.0 °F - 37.0 °F 41% 30.26 in 10.0 mi SSE 9.2 mph - N/A   Mostly Cloudy
5:53 PM 59.0 °F - 37.0 °F 44% 30.26 in 10.0 mi SSE 6.9 mph - N/A   Clear
6:53 PM 55.9 °F - 37.9 °F 51% 30.24 in 10.0 mi South 5.8 mph - N/A   Clear
7:53 PM 55.0 °F - 37.9 °F 53% 30.24 in 10.0 mi SSE 8.1 mph - N/A   Clear
8:53 PM 51.1 °F - 39.9 °F 66% 30.26 in 10.0 mi SSE 4.6 mph - N/A   Clear
9:53 PM 52.0 °F - 41.0 °F 66% 30.26 in 10.0 mi SE 4.6 mph - N/A   Clear
10:53 PM 52.0 °F - 41.0 °F 66% 30.27 in 10.0 mi SE 3.5 mph - N/A   Clear
11:53 PM 52.0 °F - 42.1 °F 69% 30.27 in 10.0 mi ESE 4.6 mph - N/A   Clear